Location: Meadowbank Aerodrome
(65.0250°N, 96.0705°W)
Time: 00:19:45
(UTC-05:00)

Cosmos 2221 - Visible Passes

Search period start: 26 September 2016 00:00
Search period end: 06 October 2016 00:00
Orbit: 593 x 618 km, 82.5° (Epoch: 24 September)

Date Brightness Start Highest point End Pass type
(mag) Time Alt. Az. Time Alt. Az. Time Alt. Az.
26 Sep 5.4 01:36:31 10° WNW 01:38:32 13° NNW 01:40:34 10° N visible
26 Sep 5.8 04:57:37 10° NNE 04:58:07 10° NNE 04:58:36 10° NNE visible
26 Sep 3.8 20:55:59 18° ESE 20:57:40 22° E 21:01:02 10° NNE visible
26 Sep 2.4 22:32:51 33° SSW 22:34:47 90° WNW 22:39:09 10° NNE visible
27 Sep 4.6 00:09:42 12° WSW 00:12:59 26° NW 00:16:38 10° N visible
27 Sep 5.6 01:50:51 10° NW 01:52:09 11° NNW 01:53:26 10° N visible
27 Sep 5.6 05:10:11 10° N 05:11:44 12° NNE 05:13:18 10° NE visible
27 Sep 3.4 21:08:46 21° SE 21:10:40 29° E 21:14:26 10° NNE visible
27 Sep 2.8 22:45:37 26° SW 22:48:02 67° WNW 22:52:22 10° NNE visible
28 Sep 4.9 00:23:07 10° W 00:26:26 21° NW 00:29:44 10° N visible
28 Sep 5.5 05:23:08 10° N 05:25:20 14° NNE 05:27:32 10° ENE visible
28 Sep 4.5 19:46:38 10° E 19:47:13 10° ENE 19:47:48 10° ENE visible
28 Sep 3.0 21:21:29 22° SSE 21:23:44 39° E 21:27:47 10° NNE visible
28 Sep 3.3 22:58:19 18° SW 23:01:18 50° WNW 23:05:33 10° NNE visible
29 Sep 5.2 00:37:02 10° W 00:39:56 17° NW 00:42:50 10° N visible
29 Sep 5.4 05:36:10 10° N 05:38:53 16° NE 05:41:36 10° ENE visible
29 Sep 4.3 19:57:52 10° ESE 20:00:05 14° ENE 20:02:18 10° NE visible
29 Sep 2.6 21:34:05 21° SSE 21:36:50 54° E 21:41:04 10° NNE visible
29 Sep 3.9 23:10:55 12° SW 23:14:38 38° WNW 23:18:42 10° N visible
30 Sep 5.4 00:51:05 10° WNW 00:53:29 14° NW 00:55:52 10° N visible
30 Sep 5.3 05:49:14 10° N 05:52:24 19° NE 05:55:33 10° E visible
30 Sep 4.0 20:10:02 10° SE 20:13:01 18° E 20:15:59 10° NE visible
30 Sep 2.4 21:46:32 16° S 21:50:00 74° ESE 21:54:19 10° NNE visible
30 Sep 4.4 23:24:12 10° WSW 23:28:01 30° NW 23:31:51 10° N visible
01 Oct 5.6 01:05:16 10° NW 01:07:04 12° NNW 01:08:51 10° N visible
01 Oct 5.8 04:25:44 10° NNE 04:26:39 11° NNE 04:27:33 10° NE visible
01 Oct 5.0 06:02:21 10° N 06:05:52 24° NE 06:09:23 10° ESE visible
01 Oct 3.6 20:22:29 10° SE 20:25:59 24° E 20:29:28 10° NNE visible
01 Oct 2.5 21:58:50 10° SSW 22:03:11 82° WNW 22:07:31 10° NNE visible
01 Oct 4.8 23:37:55 10° WSW 23:41:27 24° NW 23:44:59 10° N visible
02 Oct 5.7 01:19:46 10° NW 01:20:40 11° NNW 01:21:35 10° NNW visible
02 Oct 5.6 04:38:29 10° N 04:40:16 12° NNE 04:42:02 10° NE visible
02 Oct 4.6 06:15:29 10° N 06:19:18 30° NE 06:23:05 10° ESE visible
02 Oct 3.2 20:35:09 10° SSE 20:39:01 32° E 20:42:51 10° NNE visible
02 Oct 3.0 22:12:09 10° SSW 22:16:26 61° WNW 22:20:43 10° NNE visible
02 Oct 5.1 23:51:45 10° W 23:54:54 19° NW 23:58:04 10° N visible
03 Oct 5.5 04:51:28 10° N 04:53:50 14° NE 04:56:12 10° ENE visible
03 Oct 4.1 06:28:38 10° N 06:32:40 38° ENE 06:36:41 10° SE visible
03 Oct 2.8 20:47:58 10° SSE 20:52:05 43° E 20:56:11 10° NNE visible
03 Oct 3.6 22:25:34 10° SW 22:29:44 45° WNW 22:33:54 10° NNE visible
04 Oct 5.4 00:05:43 10° WNW 00:08:25 16° NW 00:11:08 10° N visible
04 Oct 5.4 05:04:31 10° N 05:07:22 17° NE 05:10:14 10° E visible
04 Oct 3.6 06:41:48 10° NNW 06:46:00 50° ENE 06:50:11 10° SE visible
04 Oct 4.1 19:25:54 10° ESE 19:28:22 15° ENE 19:30:51 10° NE visible
04 Oct 2.5 21:00:56 10° S 21:05:11 60° E 21:09:27 10° NNE visible
04 Oct 4.1 22:39:06 10° SW 22:43:04 35° WNW 22:47:03 10° N visible
05 Oct 5.6 00:19:47 10° WNW 00:21:59 14° NNW 00:24:10 10° N visible
05 Oct 5.2 05:17:36 10° N 05:20:52 21° NE 05:24:08 10° E visible
05 Oct 3.0 06:54:58 10° NNW 06:59:16 68° ENE 07:03:32 10° SSE visible
05 Oct 3.8 19:38:10 10° SE 19:41:19 20° E 19:44:27 10° NE visible
05 Oct 2.4 21:14:02 10° SSW 21:18:22 82° ESE 21:22:41 10° NNE visible
05 Oct 4.6 22:52:44 10° WSW 22:56:28 27° NW 23:00:11 10° N visible
